Jacksonville, FL

11:04 PM EST on December 08, 2016 (GMT -0500)
Mayport Naval Station / Adm. David L. McDonald Field

Weather History for KNRB - June, 2013

Change the Weather History Date:

Sunday, June 30, 2013

  Actual Average Record
Temperature  
Mean Temperature 80 °F -  
Max Temperature 91 °F 86 °F 100 °F (1998)
Min Temperature 73 °F 73 °F 71 °F (2008)
Cooling Degree Days 16    
Growing Degree Days 30 (Base 50)    
Moisture  
Dew Point 73 °F    
Average Humidity 87    
Maximum Humidity 100    
Minimum Humidity 61    
Precipitation  
Precipitation 0.20 in - - ()
Sea Level Pressure  
Sea Level Pressure 29.83 in    
Wind  
Wind Speed 9 mph (South)    
Max Wind Speed 16 mph    
Max Gust Speed 24 mph    
Visibility 10 miles    
Events Rain , Thunderstorm    
Averages and records for this station are not official NWS values.
T = Trace of Precipitation, MM = Missing Value Source: NWS Daily Summary

Daily Weather History Graph

Daily Weather History Graph

Search for Another Location

Airport or City:

Trip Planner

Search our weather history database for the weather conditions in past years. The results will help you decide how hot, cold, wet, or windy it might be!

Date:

Astronomy

Jun. 30, 2013 Rise Set
Actual Time 6:26 AM EDT 8:31 PM EDT
Civil Twilight 5:59 AM EDT 8:59 PM EDT
Nautical Twilight 5:25 AM EDT 9:32 PM EDT
Astronomical Twilight 4:50 AM EDT 10:08 PM EDT
Moon 1:04 AM EDT (6/30) 2:02 PM EDT (6/30)
Length of Visible Light 14h 59m
Length of Day
14h 04m
Last Quarter, 45% of the Moon is Illuminated
Jun 30
Last Quarter
Jul 8
New
Jul 15
First Quarter
Jul 22
Full
Jul 29
Last Quarter

Hourly Weather History & Observations

Time (EDT) Temp. Heat Index Dew Point Humidity Pressure Visibility Wind Dir Wind Speed Gust Speed Precip Events Conditions
12:52 AM 75.9 °F - 72.0 °F 87% 29.80 in 10.0 mi South 8.1 mph - N/A   Clear
1:52 AM 75.0 °F - 72.0 °F 90% 29.81 in 10.0 mi SSW 5.8 mph - N/A   Clear
2:52 AM 75.0 °F - 72.0 °F 90% 29.80 in 10.0 mi SSW 6.9 mph - N/A   Clear
3:52 AM 75.0 °F - 73.0 °F 94% 29.79 in 10.0 mi SSW 8.1 mph - N/A   Clear
4:52 AM 73.9 °F - 73.0 °F 97% 29.79 in 10.0 mi SSW 8.1 mph - N/A   Clear
5:52 AM 73.9 °F - 73.0 °F 97% 29.80 in 10.0 mi SSW 9.2 mph - N/A   Clear
6:52 AM 73.9 °F - 73.0 °F 97% 29.82 in 10.0 mi South 5.8 mph - N/A   Clear
7:52 AM 77.0 °F - 73.9 °F 90% 29.83 in 10.0 mi SSW 11.5 mph - N/A   Clear
8:52 AM 79.0 °F - 73.9 °F 84% 29.84 in 10.0 mi SW 9.2 mph - N/A   Scattered Clouds
9:02 AM 80.6 °F 85.4 °F 73.4 °F 79% 29.84 in 10.0 mi SW 9.2 mph - N/A   Mostly Cloudy
9:21 AM 80.6 °F 85.4 °F 73.4 °F 79% 29.84 in 10.0 mi SW 13.8 mph - N/A   Scattered Clouds
9:50 AM 82.4 °F 89.5 °F 75.2 °F 79% 29.84 in 10.0 mi SW 10.4 mph 20.7 mph N/A   Mostly Cloudy
9:52 AM 84.0 °F 91.9 °F 75.0 °F 74% 29.84 in 10.0 mi SSW 12.7 mph 20.7 mph N/A   Mostly Cloudy
10:16 AM 82.4 °F 88.2 °F 73.4 °F 74% 29.83 in 10.0 mi SW 9.2 mph - N/A   Partly Cloudy
10:52 AM 84.9 °F 92.1 °F 73.9 °F 69% 29.83 in 10.0 mi SW 9.2 mph - N/A   Scattered Clouds
11:52 AM 88.0 °F 95.6 °F 73.0 °F 61% 29.82 in 10.0 mi SSW 10.4 mph - N/A   Scattered Clouds
12:52 PM 86.0 °F 95.1 °F 75.0 °F 70% 29.81 in 10.0 mi SSE 10.4 mph 19.6 mph N/A   Mostly Cloudy
1:19 PM 86.0 °F 95.1 °F 75.2 °F 70% 29.81 in 10.0 mi SSE 16.1 mph - N/A Thunderstorm Mostly Cloudy
1:44 PM 82.4 °F 88.2 °F 73.4 °F 74% 29.83 in 10.0 mi West 9.2 mph 18.4 mph N/A Rain , Thunderstorm Light Thunderstorms and Rain
1:52 PM 78.1 °F - 71.1 °F 79% 29.83 in 10.0 mi SW 9.2 mph 24.2 mph 0.00 in Rain , Thunderstorm Light Thunderstorms and Rain
2:09 PM 75.2 °F - 73.4 °F 94% 29.83 in 1.8 mi SW 12.7 mph 23.0 mph 0.09 in Rain , Thunderstorm Light Thunderstorms and Rain
2:22 PM 73.4 °F - 71.6 °F 94% 29.83 in 3.0 mi SSW 10.4 mph - 0.18 in Rain , Thunderstorm Light Thunderstorms and Rain
2:52 PM 73.9 °F - 72.0 °F 93% 29.83 in 10.0 mi South 8.1 mph - 0.19 in Rain , Thunderstorm Light Thunderstorms and Rain
3:04 PM 73.4 °F - 73.4 °F 100% 29.84 in 10.0 mi SE 13.8 mph - 0.00 in Rain Light Rain
3:52 PM 75.0 °F - 73.0 °F 94% 29.83 in 10.0 mi South 6.9 mph - 0.01 in Rain Light Rain
4:13 PM 75.2 °F - 73.4 °F 94% 29.84 in 10.0 mi SSE 10.4 mph - 0.00 in   Overcast
4:52 PM 75.0 °F - 73.0 °F 94% 29.83 in 10.0 mi SSE 9.2 mph - 0.00 in   Overcast
5:52 PM 75.9 °F - 73.0 °F 91% 29.81 in 10.0 mi SE 12.7 mph - N/A   Overcast
5:56 PM 75.2 °F - 73.4 °F 94% 29.81 in 10.0 mi SSE 11.5 mph - 0.00 in Rain Light Rain
6:52 PM 77.0 °F - 73.0 °F 88% 29.82 in 10.0 mi SSE 11.5 mph - 0.00 in   Overcast
7:52 PM 75.9 °F - 73.0 °F 91% 29.83 in 10.0 mi SSE 15.0 mph - N/A   Overcast
8:52 PM 75.9 °F - 73.9 °F 94% 29.84 in 10.0 mi SSE 13.8 mph 20.7 mph N/A   Overcast
9:52 PM 75.0 °F - 73.0 °F 94% 29.85 in 10.0 mi South 12.7 mph - N/A   Mostly Cloudy
10:52 PM 73.9 °F - 72.0 °F 93% 29.86 in 10.0 mi South 10.4 mph - N/A   Mostly Cloudy
11:52 PM 73.9 °F - 71.1 °F 91% 29.87 in 10.0 mi South 11.5 mph - N/A   Clear